This is the latest recevied weather packets stored in our database for station/object EA3ANS-1. If no packets are shown the sender has not sent any weather packets the latest 10 day(s).
| Time | Temp. | Humidity | Pressure | Rain* | Wind** | Luminosity | Snow |
|---|---|---|---|---|---|---|---|
| 1777666293 | 17.22° C | - | 1023.2 hPa | 0 mm | 1.34 m/s, 148° | - | - |
| 1777665692 | 17.22° C | - | 1023.1 hPa | 0 mm | 1.34 m/s, 104° | - | - |
| 1777663400 | 17.78° C | - | 1022.7 hPa | 0 mm | 2.68 m/s, 159° | - | - |
| 1777662193 | 17.78° C | - | 1022.6 hPa | 0 mm | 1.79 m/s, 129° | - | - |
| 1777659803 | 18.33° C | - | 1022.1 hPa | 0 mm | 2.68 m/s, 152° | - | - |
| 1777659206 | 18.89° C | - | 1022.1 hPa | 0 mm | 1.79 m/s, 159° | - | - |
| 1777655598 | 19.44° C | - | 1021.1 hPa | 0 mm | 3.13 m/s, 129° | - | - |
| 1777655001 | 19.44° C | - | 1021.1 hPa | 0 mm | 2.68 m/s, 156° | - | - |
| 1777654326 | 20° C | - | 1020.8 hPa | 0 mm | 3.58 m/s, 136° | - | - |
| 1777653072 | 20.56° C | - | 1020.5 hPa | 0 mm | 3.13 m/s, 117° | - | - |
| 1777652474 | 20° C | - | 1020.6 hPa | 0 mm | 3.58 m/s, 127° | - | - |
| 1777651877 | 20.56° C | - | 1020.6 hPa | 0 mm | 3.13 m/s, 165° | - | - |
| 1777651274 | 20° C | - | 1020.4 hPa | 0 mm | 3.58 m/s, 131° | - | - |
| 1777650677 | 20.56° C | - | 1020.6 hPa | 0 mm | 3.58 m/s, 139° | - | - |
| 1777650067 | 21.11° C | - | 1020.6 hPa | 0 mm | 4.02 m/s, 142° | - | - |
| 1777649464 | 21.11° C | - | 1020.4 hPa | 0 mm | 2.68 m/s, 210° | - | - |
| 1777648866 | 21.11° C | - | 1020.6 hPa | 0 mm | 4.02 m/s, 153° | - | - |
| 1777648267 | 21.11° C | - | 1020.7 hPa | 0 mm | 2.68 m/s, 135° | - | - |
| 1777647668 | 21.11° C | - | 1020.5 hPa | 0 mm | 4.02 m/s, 165° | - | - |
| 1777647070 | 22.22° C | - | 1020.8 hPa | 0 mm | 3.13 m/s, 211° | - | - |
| 1777646473 | 22.22° C | - | 1020.8 hPa | 0 mm | 3.58 m/s, 155° | - | - |
| 1777645865 | 22.22° C | - | 1020.8 hPa | 0 mm | 3.58 m/s, 167° | - | - |
| 1777645268 | 21.67° C | - | 1020.9 hPa | 0 mm | 2.68 m/s, 158° | - | - |
| 1777644670 | 22.22° C | - | 1021 hPa | 0 mm | 4.02 m/s, 132° | - | - |
| 1777644073 | 21.67° C | - | 1021 hPa | 0 mm | 4.47 m/s, 118° | - | - |
* Rain latest hour (hover to see other rain measurements)
** Current wind speed in m/s (hover to see current wind gust speed)